Flag for Norway Weather past 2 weeks in Fredrikstad, Norway

Now
55 °F

Partly sunny.


Feels Like: 54 °F
Forecast: 52 / 61 °F
Wind: 6 mph from Southeast

Location: Rygge

Current Time: Oct 1, 2014 at 6:58:18 PM

Latest Report: Oct 1, 2014 at 6:20 PM


Visibility: N/A

Pressure: 30.27 "Hg

Humidity: 72%

Dew point: 46 °F

Location of FredrikstadLocation

Historic Weather in Fredrikstad — Graph

°F

Fredrikstad temperature yesterday

Maximum temperature yesterday: 61 °F (at 3:20 PM)
Minimum temperature yesterday: 41 °F (at 12:50 AM)
Average temperature yesterday: 48 °F

Past Weeks' High & Low Weather Summary

 TemperatureHumidityPressure
High68 °F (Sep 19, 3:50 PM)100% (Sep 17, 12:20 AM)30.36 "Hg (Sep 17, 12:20 AM)
Low34 °F (Sep 23, 4:20 AM)34% (Sep 26, 6:20 PM)29.53 "Hg (Sep 25, 2:20 AM)
Average52 °F77%29.99 "Hg
* Reported Sep 16 5:20 PM — Oct 1 5:50 PM, Fredrikstad, Weather by CustomWeather, © 2014

Note: Actual official high and low records may vary slightly from our data, if they occured in-between our weather recording intervals... More about our weather records

Advertising

Fredrikstad weather history for previous 24 hours

 ConditionsComfort  
Time TempWeatherWind HumidityBarometerVisibility
5:50 PM
Oct 1
55 °FPartly sunny.7 mph77%30.27 "HgN/A
5:20 PM55 °FPartly sunny.8 mph77%30.27 "HgN/A
4:50 PM57 °FPartly sunny.9 mph67%30.27 "HgN/A
4:20 PM57 °FPartly sunny.6 mph72%30.27 "HgN/A
3:50 PM57 °FPartly sunny.7 mph72%30.27 "HgN/A
3:20 PM55 °FPartly sunny.7 mph77%30.30 "HgN/A
2:50 PM57 °FScattered clouds.8 mph67%30.30 "HgN/A
2:20 PM59 °FPassing clouds.7 mph63%30.30 "HgN/A
1:50 PM59 °FPassing clouds.6 mph63%30.30 "HgN/A
1:20 PM57 °FScattered clouds.5 mph63%30.30 "HgN/A
12:50 PM57 °FPassing clouds.5 mph59%30.33 "HgN/A
12:20 PM57 °FPassing clouds.5 mph55%30.33 "HgN/A
11:50 AM54 °FPassing clouds.5 mph63%30.33 "HgN/A
11:20 AM52 °FSunny.7 mph67%30.33 "Hg10 mi
10:50 AM50 °FSunny.3 mph76%30.33 "Hg10 mi
10:20 AM48 °FSunny.1 mph87%30.33 "Hg10 mi
9:50 AM46 °FSunny.2 mph87%30.33 "Hg10 mi
9:20 AM45 °FSunny.2 mph93%30.33 "Hg10 mi
8:50 AM43 °FSunny.3 mph93%30.33 "Hg10 mi
8:20 AM39 °FSunny.3 mph100%30.33 "Hg10 mi
7:50 AM37 °FClear.2 mph100%30.33 "Hg10 mi
7:20 AM37 °FClear.2 mph100%30.33 "Hg10 mi
6:50 AM37 °FClear.2 mph100%30.33 "Hg10 mi
6:20 AM37 °FClear.2 mph100%30.36 "Hg10 mi
5:50 AM37 °FChilly.2 mph100%30.36 "Hg3 mi
5:20 AM39 °FPassing clouds.2 mph100%30.36 "HgN/A
4:50 AM39 °FChilly.5 mph100%30.36 "Hg4 mi
4:20 AM39 °FChilly.5 mph100%30.36 "HgN/A
3:50 AM37 °FChilly.2 mph100%30.36 "Hg5 mi
3:20 AM39 °FChilly.3 mph100%30.36 "Hg6 mi
2:50 AM41 °FQuite cool.5 mph93%30.36 "HgN/A
2:20 AM39 °FChilly.3 mph100%30.36 "HgN/A
1:50 AM41 °FQuite cool.3 mph93%30.36 "HgN/A
1:20 AM41 °FPassing clouds.1 mph93%30.36 "HgN/A
12:50 AM41 °FQuite cool.2 mph93%30.36 "HgN/A
12:20 AM41 °FQuite cool.2 mph100%30.36 "HgN/A
11:50 PM
Sep 30
43 °FQuite cool.1 mph93%30.36 "HgN/A
11:20 PM43 °FQuite cool.2 mph93%30.36 "HgN/A
10:50 PM43 °FClear.2 mph100%30.36 "Hg10 mi
10:20 PM45 °FClear.2 mph93%30.36 "Hg10 mi
9:50 PM46 °FClear.1 mph93%30.33 "Hg10 mi
9:20 PM46 °FClear.2 mph93%30.33 "Hg10 mi
8:50 PM46 °FClear.3 mph87%30.33 "Hg10 mi
8:20 PM48 °FClear.2 mph87%30.33 "Hg10 mi
7:50 PM50 °FSunny.2 mph82%30.33 "Hg10 mi
7:20 PM52 °FSunny.2 mph77%30.33 "Hg10 mi
6:50 PM55 °FSunny.1 mph63%30.33 "Hg10 mi
6:20 PM57 °FSunny.2 mph59%30.33 "Hg10 mi
Weather by CustomWeather, © 2014

See weather overviewHow to use our weather pages